Showing default

ION SCV-015, 58469

Orbit data source: Space-Track

ION SCV-015, 58469 is a payload satellite owned by D-ORBIT (IT) in SSO that was launched on Fri, 01 Dec 2023 UTC via an FALCON 9 launch vehicle from the Air Force Western Test Range (AFWTR). Payload-class satellites include a variety of spacecraft equipped with specific instruments for various scientific and technological missions. These include communications satellites like Starlink; space stations such as the ISS; scientific satellites like the Hubble; Earth observation satellites from companies like Planet Labs, Umbra, and HawkEye 360; GPS; miniature CubeSats for education and research; and military/defense satellites.

Loading next visibility...
Identifier
58469, 2023-185H
Orbit
SSO
Country
Flag of ITIT
Related business
Manufacturer
D-ORBIT
Mission
Operational Commercial Technology
Bus & Motor
ION-SC, PM200
Mass
220 kg wet, 150 kg dry
Launch date (UTC)
2023-12-01 (3 years ago)
Launch vehicle
FALCON 9
Launch site
Air Force Western Test Range (AFWTR)
Object type
Payload
Rocket body
Debris
Shape & HBR
Box, 2.0 m
Radar Cross Section
0.240 m², Large (>1 m²)

Expand to show TLE details & history
Last TLE update: 12 hours ago

TLE from 12 hours ago
0 ION SCV-015
1 58469U 23185H   26263.59367130  .00004811  00000-0  14817-3 0  9992
2 58469  97.5739 354.7074 0010376 117.5569 242.6729 15.34087327155705
Epoch: 2026-09-20T14:14Z
TLE epoch observation values (Epoch: 2026-09-20T14:14:53.200Z)
Latitude
0.00003°
Longitude
141.50011°
Altitude
470.003 km
Speed
7.629 km/s
True Right ascension
23h 38m 49s
True Declination
0° 00' 00"
Sunlit
Object was in full shadow at epoch
Visualization orbit readout
Latitude
Unknown
Longitude
Unknown
Altitude
Unknown
Speed
Unknown
Apparent Right ascension
Unknown
Apparent Declination
Unknown
Sunlit
N/A
Visualization observer readout
Local Sidereal Time
18:56:41
Azimuth
Unknown
Elevation
Unknown
Doppler factor
Unknown
Orbital elements
Apogee altitude
467.683 km
Perigee altitude
453.491 km
Semi-major axis
6,838.724 km
Eccentricity
0.00104
Inclination
97.5739°
RAAN
354.7074°
Arg. of periapsis
117.5569°
True anomaly
242.56733°
Mean anomaly
242.6729°
Eccentric anomaly
242.62011°
Mean motion
3.83778 °/min
Orbital period
93.8 mins
BSTAR
0.00014817
Loading maneuver chart data...
Computing Atmospheric mass density...
Loading historical data...
Loading historical data...
Loading historical data...
Loading historical data...
Loading historical data...
Loading historical data...
Loading historical data...

Documentation

Showing up to 5 results
|